Regional Weather Roundup
Issued by NWS

Home | Current Version | Previous Version | Text Only | Print | Product List | Glossary Off
Versions: 1 2 3 4 5 6 7 8 9 10 11 12 13 14 15 16 17 18 19 20 21 22 23 24 25 26 27 28 29 30 31 32 33 34 35 36 37 38 39 40 41 42 43 44 45 46 47 48 49 50

000
ASUS45 KTFX 200319
RWRMT
MONTANA HOURLY WEATHER ROUNDUP
NATIONAL WEATHER SERVICE GREAT FALLS MT
919 PM MDT FRI SEP 19 2014

NOTE: "FAIR" INDICATES FEW OR NO CLOUDS BELOW 12000 FEET WITH NO
SIGNIFICANT WEATHER AND/OR OBSTRUCTIONS TO VISIBILITY.

* THESE STATIONS ARE NOT UNDER NWS QUALITY CONTROL. THEY DO NOT
   REPORT WEATHER SUCH AS PRECIPITATION OR FOG.

MTZ001>007-043-200400-
WEST OF THE DIVIDE
CITY           SKY/WX    TMP DP  RH WIND       PRES   REMARKS
KALISPELL      PTCLDY    55  45  69 SW7       30.06R
MISSOULA       PTCLDY    64  45  50 NW5       30.11R
BUTTE          PTCLDY    57  39  51 NW7       30.17R
MULLAN PASS    PTCLDY    50  43  77 CALM      30.21R
* ESSEX        N/A       55  49  80 E1         N/A
* LINCOLN      N/A       59  42  53 W4G12      N/A
* LOOKOUT PASS N/A       53  45  74 NE1        N/A
* POLSON       N/A       58  44  60 W1G6       N/A
* RONAN APT    PTCLDY    55  45  69 N/A        N/A
* SEELEY LAKE  N/A       56  42  60 N1         N/A
* THOMP F APT  PTCLDY    60  39  46 N8         N/A
$$

MTZ008-052>055-200400-
SOUTHWEST MONTANA
CITY           SKY/WX    TMP DP  RH WIND       PRES   REMARKS
BOZEMAN        CLEAR     57  43  60 S5        30.10R
DILLON         PTCLDY    61  41  48 E9        30.13R
W YELLOWSTONE  MOCLDY    57  43  60 SW6       30.19R
* THREE FORKS  PTCLDY    63  63 100 N/A        N/A
* BOULDER HILL N/A       57  36  46 NE3        N/A
* MONIDA PASS  N/A       55  40  57 W2         N/A
* RAYNOLDS PAS N/A       57   7  13 N4G12      N/A
* WHITEHALL    N/A       63  40  43 W5G12      N/A
* WISE RIVER   N/A       57  39  51 W7G12      N/A
$$

MTZ009>010-012-014-046-048-049-054-200400-
EAST SLOPES AND CENTRAL MONTANA
CITY           SKY/WX    TMP DP  RH WIND       PRES   REMARKS
CUT BANK       CLEAR     61  41  48 W21       29.96R
GREAT FALLS    CLEAR     63  39  41 W17       29.98R
HELENA         PTCLDY    63  41  45 W8        30.05R
MALMSTROM AFB  CLEAR     66  41  40 W16G24    30.00R
* CONRAD       CLEAR     59  46  62 SW8        N/A
* EAST GLACIER N/A       58  40  51 NW10G19    N/A
* MONARCH      N/A       57  37  47 W17G23     N/A
* PENDROY      N/A       54  40  59 W10        N/A
* SAINT MARY   N/A       59  42  53 SW8G23     N/A
* SWEET GRASS  N/A       59  39  48 W10G16     N/A
* WHITE SULPH  N/A       54  38  55 W2         N/A
$$

MTZ011-013-016-021-035-040-045-047-050-051-200400-
NORTH CENTRAL MONTANA
CITY           SKY/WX    TMP DP  RH WIND       PRES   REMARKS
HAVRE          FAIR      61  45  56 SW8       29.88R
LEWISTOWN      MOCLDY    64  43  47 W12       30.01R
* CHINOOK      CLEAR     64  48  56 W5        29.86R
* FORT BENTON  CLEAR     63  43  48 SW8       29.96R
* CHESTER      N/A       64  40  41 W9G16      N/A
* DENTON       N/A       58  42  55 SW9        N/A
* GEYSER       N/A       54  40  59 W10        N/A
* JUDITH GAP   N/A       58  44  60 VRB4       N/A
* LOMA         N/A       67  43  42 SW10G15    N/A
$$

MTZ017>020-022>027-061-062-200400-
NORTHEAST MONTANA
CITY           SKY/WX    TMP DP  RH WIND       PRES   REMARKS
GLASGOW        CLEAR     64  52  65 CALM      29.84R
GLENDIVE       CLEAR     57  46  67 NW6       29.88R
JORDAN         PTCLDY    59  48  67 W5        29.88S
SIDNEY         PTCLDY    59  50  72 CALM      29.84R
WOLF POINT     CLEAR     59  52  78 SW5       29.83R
* BEAVER HILL  N/A       61  47  60 SW8        N/A
* CIRCLE       N/A       66  51  59 N/A        N/A
* LINDSAY DVD  N/A       58  47  67 W4         N/A
* NAVAJO       N/A       58  51  78 W8         N/A
$$

MTZ028>042-056>058-200400-
SOUTHCENTRAL AND SOUTHEAST MONTANA
CITY           SKY/WX    TMP DP  RH WIND       PRES   REMARKS
BAKER          CLEAR     57  46  67 W8        29.91R
BILLINGS       FAIR      66  45  47 NW7       29.99R
LIVINGSTON     PTCLDY    64  41  43 NW7       30.07R
MILES CITY     MOCLDY    64  45  50 W8        29.90R
* LAUREL APT   CLEAR     61  43  52 N/A        N/A
* ROUNDUP APT  PTCLDY    64  43  47 W6         N/A
* ALZADA       N/A       65  48  54 NW2        N/A
* LAME DEER    N/A       62  46  56 NW3        N/A
* REED POINT   N/A       63  40  43 W4         N/A
* ROSCOE HILL  N/A       61  36  39 SW3        N/A
$$

REGIONAL REPORTS...DAKOTAS
CITY           SKY/WX    TMP DP  RH WIND       PRES   REMARKS
WILLISTON      PTCLDY    57  48  72 N3        29.80R
DICKINSON      CLEAR     57  50  78 W7        29.84R
BEACH          N/A       57  48  72 W9        29.87S
CROSBY         CLEAR     54  54 100 W6        29.81R
TIOGA          CLEAR     54  54 100 W5        29.84R
WATFORD CITY   CLEAR     55  48  77 SW5       29.81R
BISMARCK       MOCLDY    68  54  61 NW10      29.79R
GRAND FORKS    MOCLDY    63  55  75 N14       29.63R
FARGO          CLOUDY    72  55  55 W14       29.60R
BUFFALO SD     PTCLDY    57  46  67 NW13      29.86R
RAPID CITY     PTCLDY    66  48  52 N9        29.93R
$$

REGIONAL REPORTS...WYOMING/IDAHO/WASHINGTON
CITY           SKY/WX    TMP DP  RH WIND       PRES   REMARKS
GILLETTE       MOCLDY    61  48  62 N5        30.03R
SHERIDAN       PTCLDY    57  48  72 S5        30.02R
CODY           CLEAR    N/A N/A N/A N/A        N/A
YELLOWSTONE LA PTCLDY    45  41  86 NW3       30.29R
SALMON         PTCLDY    66  43  43 NW5       30.06R
MULLAN PASS    PTCLDY    50  43  77 CALM      30.21S
SAND POINT     PTCLDY    59  54  84 CALM      30.04R
SPOKANE        PTCLDY    68  46  45 S6        30.06R
$$

REGIONAL REPORTS...ALBERTA
CITY           SKY/WX    TMP DP  RH WIND       PRES   REMARKS
CALGARY        FAIR      63  34  34 W15       29.90R
LETHBRIDGE     FAIR      63  41  45 SW20      29.89R
MEDICINE HAT   N/A       66  45  47 SW18G26   29.79R
EDMONTON       MOCLDY    54  43  67 NW7       29.81R
WATERTON GATE  N/A       61  39  44 SW14G24    N/A
CARDSTON       N/A       61  41  48 W12G20     N/A
MILK RIVER     N/A       57  41  55 W8         N/A
$$

REGIONAL REPORTS...SASKATCHEWAN
CITY           SKY/WX    TMP DP  RH WIND       PRES   REMARKS
SWIFT CURRENT  CLEAR     57  46  67 SW6       29.80S
REGINA         FAIR      54  48  80 SW8       29.76R
VAL MARIE      N/A       55  46  72 CALM       N/A
ASSINIBOIA     N/A       55  46  72 SW6        N/A
CORONACH       N/A       50  48  93 W3         N/A

$$




USA.gov is the U.S. government's official web portal to all federal, state and local government web resources and services.